Year,Month,Day,Hour,Minute,Value (Times are PST for windgust in km/hr)
2022,04,05,00,00,93.30
2022,04,05,00,01,96.60
2022,04,05,00,02,90.10
2022,04,05,00,03,83.70
2022,04,05,00,04,80.50
2022,04,05,00,05,82.10
2022,04,05,00,06,86.90
2022,04,05,00,07,95.00
2022,04,05,00,08,91.70
2022,04,05,00,09,90.10
2022,04,05,00,10,90.10
2022,04,05,00,11,85.30
2022,04,05,00,12,83.70
2022,04,05,00,13,85.30
2022,04,05,00,14,90.10
2022,04,05,00,15,90.10
2022,04,05,00,16,86.90
2022,04,05,00,17,93.30
2022,04,05,00,18,86.90
2022,04,05,00,19,91.70
2022,04,05,00,20,90.10
2022,04,05,00,21,82.10
2022,04,05,00,22,90.10
2022,04,05,00,23,91.70
2022,04,05,00,24,93.30
2022,04,05,00,25,88.50
2022,04,05,00,26,96.60
2022,04,05,00,27,96.60
2022,04,05,00,28,86.90
2022,04,05,00,29,93.30
2022,04,05,00,30,90.10
2022,04,05,00,31,90.10
2022,04,05,00,32,93.30
2022,04,05,00,33,98.20
2022,04,05,00,34,90.10
2022,04,05,00,35,91.70
2022,04,05,00,36,95.00
2022,04,05,00,37,95.00
2022,04,05,00,38,90.10
2022,04,05,00,39,86.90
2022,04,05,00,40,85.30
2022,04,05,00,41,91.70
2022,04,05,00,42,86.90
2022,04,05,00,43,83.70
2022,04,05,00,44,80.50
2022,04,05,00,45,83.70
2022,04,05,00,46,88.50
2022,04,05,00,47,90.10
2022,04,05,00,48,88.50
2022,04,05,00,49,86.90
2022,04,05,00,50,82.10
2022,04,05,00,51,80.50
2022,04,05,00,52,75.60
2022,04,05,00,53,82.10
2022,04,05,00,54,82.10
2022,04,05,00,55,85.30
2022,04,05,00,56,90.10
2022,04,05,00,57,93.30
2022,04,05,00,58,96.60
2022,04,05,00,59,96.60
2022,04,05,01,00,98.20
2022,04,05,01,01,111.10
2022,04,05,01,02,107.80
2022,04,05,01,03,101.40
2022,04,05,01,04,95.00
2022,04,05,01,05,90.10
2022,04,05,01,06,90.10
2022,04,05,01,07,98.20
2022,04,05,01,08,95.00
2022,04,05,01,09,99.80
2022,04,05,01,10,93.30
2022,04,05,01,11,96.60
2022,04,05,01,12,85.30
2022,04,05,01,13,96.60
2022,04,05,01,14,101.40
2022,04,05,01,15,90.10
2022,04,05,01,16,91.70
2022,04,05,01,17,93.30
2022,04,05,01,18,98.20
2022,04,05,01,19,99.80
2022,04,05,01,20,90.10
2022,04,05,01,21,93.30
2022,04,05,01,22,98.20
2022,04,05,01,23,90.10
2022,04,05,01,24,90.10
2022,04,05,01,25,95.00
2022,04,05,01,26,82.10
2022,04,05,01,27,90.10
2022,04,05,01,28,83.70
2022,04,05,01,29,86.90
2022,04,05,01,30,83.70
2022,04,05,01,31,90.10
2022,04,05,01,32,90.10
2022,04,05,01,33,91.70
2022,04,05,01,34,82.10
2022,04,05,01,35,82.10
2022,04,05,01,36,90.10
2022,04,05,01,37,95.00
2022,04,05,01,38,104.60
2022,04,05,01,39,103.00
2022,04,05,01,40,95.00
2022,04,05,01,41,90.10
2022,04,05,01,42,93.30
2022,04,05,01,43,95.00
2022,04,05,01,44,90.10
2022,04,05,01,45,88.50
2022,04,05,01,46,86.90
2022,04,05,01,47,90.10
2022,04,05,01,48,86.90
2022,04,05,01,49,90.10
2022,04,05,01,50,88.50
2022,04,05,01,51,86.90
2022,04,05,01,52,88.50
2022,04,05,01,53,95.00
2022,04,05,01,54,90.10
2022,04,05,01,55,88.50
2022,04,05,01,56,93.30
2022,04,05,01,57,93.30
2022,04,05,01,58,96.60
2022,04,05,01,59,90.10
2022,04,05,02,00,95.00
2022,04,05,02,01,91.70
2022,04,05,02,02,90.10
2022,04,05,02,03,88.50
2022,04,05,02,04,78.80
2022,04,05,02,05,85.30
2022,04,05,02,06,80.50
2022,04,05,02,07,83.70
2022,04,05,02,08,93.30
2022,04,05,02,09,83.70
2022,04,05,02,10,83.70
2022,04,05,02,11,83.70
2022,04,05,02,12,83.70
2022,04,05,02,13,91.70
2022,04,05,02,14,96.60
2022,04,05,02,15,104.60
2022,04,05,02,16,95.00
2022,04,05,02,17,106.20
2022,04,05,02,18,98.20
2022,04,05,02,19,95.00
2022,04,05,02,20,95.00
2022,04,05,02,21,88.50
2022,04,05,02,22,91.70
2022,04,05,02,23,91.70
2022,04,05,02,24,95.00
2022,04,05,02,25,90.10
2022,04,05,02,26,91.70
2022,04,05,02,27,96.60
2022,04,05,02,28,95.00
2022,04,05,02,29,93.30
2022,04,05,02,30,90.10
2022,04,05,02,31,90.10
2022,04,05,02,32,95.00
2022,04,05,02,33,91.70
2022,04,05,02,34,90.10
2022,04,05,02,35,85.30
2022,04,05,02,36,86.90
2022,04,05,02,37,88.50
2022,04,05,02,38,91.70
2022,04,05,02,39,90.10
2022,04,05,02,40,95.00
2022,04,05,02,41,88.50
2022,04,05,02,42,83.70
2022,04,05,02,43,85.30
2022,04,05,02,44,99.80
2022,04,05,02,45,98.20
2022,04,05,02,46,99.80
2022,04,05,02,47,86.90
2022,04,05,02,48,91.70
2022,04,05,02,49,85.30
2022,04,05,02,50,90.10
2022,04,05,02,51,95.00
2022,04,05,02,52,99.80
2022,04,05,02,53,93.30
2022,04,05,02,54,91.70
2022,04,05,02,55,90.10
2022,04,05,02,56,91.70
2022,04,05,02,57,90.10
2022,04,05,02,58,88.50
2022,04,05,02,59,86.90
2022,04,05,03,00,93.30
2022,04,05,03,01,88.50
2022,04,05,03,02,83.70
2022,04,05,03,03,88.50
2022,04,05,03,04,90.10
2022,04,05,03,05,95.00
2022,04,05,03,06,96.60
2022,04,05,03,07,93.30
2022,04,05,03,08,91.70
2022,04,05,03,09,86.90
2022,04,05,03,10,93.30
2022,04,05,03,11,95.00
2022,04,05,03,12,91.70
2022,04,05,03,13,96.60
2022,04,05,03,14,90.10
2022,04,05,03,15,85.30
2022,04,05,03,16,88.50
2022,04,05,03,17,90.10
2022,04,05,03,18,90.10
2022,04,05,03,19,90.10
2022,04,05,03,20,88.50
2022,04,05,03,21,93.30
2022,04,05,03,22,95.00
2022,04,05,03,23,95.00
2022,04,05,03,24,91.70
2022,04,05,03,25,91.70
2022,04,05,03,26,91.70
2022,04,05,03,27,86.90
2022,04,05,03,28,83.70
2022,04,05,03,29,85.30
2022,04,05,03,30,91.70
2022,04,05,03,31,91.70
2022,04,05,03,32,90.10
2022,04,05,03,33,90.10
2022,04,05,03,34,90.10
2022,04,05,03,35,90.10
2022,04,05,03,36,85.30
2022,04,05,03,37,83.70
2022,04,05,03,38,88.50
2022,04,05,03,39,96.60
2022,04,05,03,40,85.30
2022,04,05,03,41,82.10
2022,04,05,03,42,86.90
2022,04,05,03,43,90.10
2022,04,05,03,44,86.90
2022,04,05,03,45,103.00
2022,04,05,03,46,109.40
2022,04,05,03,47,98.20
2022,04,05,03,48,98.20
2022,04,05,03,49,95.00
2022,04,05,03,50,96.60
2022,04,05,03,51,93.30
2022,04,05,03,52,88.50
2022,04,05,03,53,90.10
2022,04,05,03,54,77.30
2022,04,05,03,55,77.30
2022,04,05,03,56,83.70
2022,04,05,03,57,85.30
2022,04,05,03,58,88.50
2022,04,05,03,59,85.30
2022,04,05,04,00,83.70
2022,04,05,04,01,88.50
2022,04,05,04,02,88.50
2022,04,05,04,03,90.10
2022,04,05,04,04,90.10
2022,04,05,04,05,101.40
2022,04,05,04,06,101.40
2022,04,05,04,07,101.40
2022,04,05,04,08,101.40
2022,04,05,04,09,85.30
2022,04,05,04,10,88.50
2022,04,05,04,11,98.20
2022,04,05,04,12,101.40
2022,04,05,04,13,99.80
2022,04,05,04,14,98.20
2022,04,05,04,15,95.00
2022,04,05,04,16,103.00
2022,04,05,04,17,99.80
2022,04,05,04,18,98.20
2022,04,05,04,19,88.50
2022,04,05,04,20,95.00
2022,04,05,04,21,91.70
2022,04,05,04,22,90.10
2022,04,05,04,23,86.90
2022,04,05,04,24,95.00
2022,04,05,04,25,95.00
2022,04,05,04,26,95.00
2022,04,05,04,27,98.20
2022,04,05,04,28,95.00
2022,04,05,04,29,96.60
2022,04,05,04,30,90.10
2022,04,05,04,31,91.70
2022,04,05,04,32,88.50
2022,04,05,04,33,77.30
2022,04,05,04,34,82.10
2022,04,05,04,35,80.50
2022,04,05,04,36,88.50
2022,04,05,04,37,83.70
2022,04,05,04,38,78.80
2022,04,05,04,39,78.80
2022,04,05,04,40,80.50
2022,04,05,04,41,80.50
2022,04,05,04,42,78.80
2022,04,05,04,43,90.10
2022,04,05,04,44,83.70
2022,04,05,04,45,86.90
2022,04,05,04,46,85.30
2022,04,05,04,47,83.70
2022,04,05,04,48,82.10
2022,04,05,04,49,83.70
2022,04,05,04,50,83.70
2022,04,05,04,51,80.50
2022,04,05,04,52,83.70
2022,04,05,04,53,90.10
2022,04,05,04,54,85.30
2022,04,05,04,55,101.40
2022,04,05,04,56,93.30
2022,04,05,04,57,82.10
2022,04,05,04,58,90.10
2022,04,05,04,59,85.30
2022,04,05,05,00,88.50
2022,04,05,05,01,86.90
2022,04,05,05,02,88.50
2022,04,05,05,03,91.70
2022,04,05,05,04,83.70
2022,04,05,05,05,85.30
2022,04,05,05,06,90.10
2022,04,05,05,07,80.50
2022,04,05,05,08,88.50
2022,04,05,05,09,85.30
2022,04,05,05,10,86.90
2022,04,05,05,11,88.50
2022,04,05,05,12,88.50
2022,04,05,05,13,82.10
2022,04,05,05,14,75.60
2022,04,05,05,15,78.80
2022,04,05,05,16,75.60
2022,04,05,05,17,77.30
2022,04,05,05,18,82.10
2022,04,05,05,19,75.60
2022,04,05,05,20,77.30
2022,04,05,05,21,78.80
2022,04,05,05,22,74.00
2022,04,05,05,23,80.50
2022,04,05,05,24,82.10
2022,04,05,05,25,77.30
2022,04,05,05,26,86.90
2022,04,05,05,27,85.30
2022,04,05,05,28,86.90
2022,04,05,05,29,85.30
2022,04,05,05,30,90.10
2022,04,05,05,31,86.90
2022,04,05,05,32,88.50
2022,04,05,05,33,88.50
2022,04,05,05,34,88.50
2022,04,05,05,35,85.30
2022,04,05,05,36,83.70
2022,04,05,05,37,82.10
2022,04,05,05,38,91.70
2022,04,05,05,39,91.70
2022,04,05,05,40,82.10
2022,04,05,05,41,88.50
2022,04,05,05,42,80.50
2022,04,05,05,43,88.50
2022,04,05,05,44,86.90
2022,04,05,05,45,80.50
2022,04,05,05,46,86.90
2022,04,05,05,47,85.30
2022,04,05,05,48,88.50
2022,04,05,05,49,86.90
2022,04,05,05,50,86.90
2022,04,05,05,51,88.50
2022,04,05,05,52,95.00
2022,04,05,05,53,96.60
2022,04,05,05,54,96.60
2022,04,05,05,55,91.70
2022,04,05,05,56,96.60
2022,04,05,05,57,90.10
2022,04,05,05,58,95.00
2022,04,05,05,59,99.80
2022,04,05,06,00,95.00
2022,04,05,06,01,85.30
2022,04,05,06,02,85.30
2022,04,05,06,03,86.90
2022,04,05,06,04,88.50
2022,04,05,06,05,88.50
2022,04,05,06,06,83.70
2022,04,05,06,07,80.50
2022,04,05,06,08,83.70
2022,04,05,06,09,86.90
2022,04,05,06,10,85.30
2022,04,05,06,11,80.50
2022,04,05,06,12,90.10
2022,04,05,06,13,80.50
2022,04,05,06,14,83.70
2022,04,05,06,15,88.50
2022,04,05,06,16,88.50
2022,04,05,06,17,78.80
2022,04,05,06,18,82.10
2022,04,05,06,19,82.10
2022,04,05,06,20,85.30
2022,04,05,06,21,86.90
2022,04,05,06,22,83.70
2022,04,05,06,23,82.10
2022,04,05,06,24,85.30
2022,04,05,06,25,93.30
2022,04,05,06,26,85.30
2022,04,05,06,27,70.80
2022,04,05,06,28,85.30
2022,04,05,06,29,90.10
2022,04,05,06,30,86.90
2022,04,05,06,31,88.50
2022,04,05,06,32,90.10
2022,04,05,06,33,82.10
2022,04,05,06,34,82.10
2022,04,05,06,35,93.30
2022,04,05,06,36,88.50
2022,04,05,06,37,88.50
2022,04,05,06,38,80.50
2022,04,05,06,39,91.70
2022,04,05,06,40,90.10
2022,04,05,06,41,90.10
2022,04,05,06,42,90.10
2022,04,05,06,43,101.40
2022,04,05,06,44,99.80
2022,04,05,06,45,90.10
2022,04,05,06,46,91.70
2022,04,05,06,47,88.50
2022,04,05,06,48,88.50
2022,04,05,06,49,83.70
2022,04,05,06,50,85.30
2022,04,05,06,51,83.70
2022,04,05,06,52,80.50
2022,04,05,06,53,78.80
2022,04,05,06,54,82.10
2022,04,05,06,55,82.10
2022,04,05,06,56,82.10
2022,04,05,06,57,82.10
2022,04,05,06,58,82.10
2022,04,05,06,59,83.70
2022,04,05,07,00,82.10
2022,04,05,07,01,75.60
2022,04,05,07,02,75.60
2022,04,05,07,03,75.60
2022,04,05,07,04,75.60
2022,04,05,07,05,77.30
2022,04,05,07,06,77.30
2022,04,05,07,07,77.30
2022,04,05,07,08,74.00
2022,04,05,07,09,70.80
2022,04,05,07,10,74.00
2022,04,05,07,11,70.80
2022,04,05,07,12,70.80
2022,04,05,07,13,69.20
2022,04,05,07,14,61.20
2022,04,05,07,15,69.20
2022,04,05,07,16,74.00
2022,04,05,07,17,72.40
2022,04,05,07,18,70.80
2022,04,05,07,19,70.80
2022,04,05,07,20,61.20
2022,04,05,07,21,69.20
2022,04,05,07,22,67.60
2022,04,05,07,23,72.40
2022,04,05,07,24,74.00
2022,04,05,07,25,69.20
2022,04,05,07,26,74.00
2022,04,05,07,27,69.20
2022,04,05,07,28,70.80
2022,04,05,07,29,70.80
2022,04,05,07,30,64.40
2022,04,05,07,31,72.40
2022,04,05,07,32,69.20
2022,04,05,07,33,69.20
2022,04,05,07,34,59.50
2022,04,05,07,35,69.20
2022,04,05,07,36,75.60
2022,04,05,07,37,74.00
2022,04,05,07,38,69.20
2022,04,05,07,39,74.00
2022,04,05,07,40,69.20
2022,04,05,07,41,66.00
2022,04,05,07,42,82.10
2022,04,05,07,43,78.80
2022,04,05,07,44,78.80
2022,04,05,07,45,80.50
2022,04,05,07,46,77.30
2022,04,05,07,47,75.60
2022,04,05,07,48,72.40
2022,04,05,07,49,74.00
2022,04,05,07,50,80.50
2022,04,05,07,51,80.50
2022,04,05,07,52,82.10
2022,04,05,07,53,72.40
2022,04,05,07,54,72.40
2022,04,05,07,55,74.00
2022,04,05,07,56,83.70
2022,04,05,07,57,80.50
2022,04,05,07,58,83.70
2022,04,05,07,59,83.70
2022,04,05,08,00,91.70
2022,04,05,08,01,88.50
2022,04,05,08,02,93.30
2022,04,05,08,03,88.50
2022,04,05,08,04,88.50
2022,04,05,08,05,88.50
2022,04,05,08,06,88.50
2022,04,05,08,07,82.10
2022,04,05,08,08,82.10
2022,04,05,08,09,86.90
2022,04,05,08,10,90.10
2022,04,05,08,11,86.90
2022,04,05,08,12,83.70
2022,04,05,08,13,83.70
2022,04,05,08,14,90.10
2022,04,05,08,15,78.80
2022,04,05,08,16,86.90
2022,04,05,08,17,83.70
2022,04,05,08,18,83.70
2022,04,05,08,19,85.30
2022,04,05,08,20,83.70
2022,04,05,08,21,82.10
2022,04,05,08,22,85.30
2022,04,05,08,23,85.30
2022,04,05,08,24,80.50
2022,04,05,08,25,82.10
2022,04,05,08,26,80.50
2022,04,05,08,27,82.10
2022,04,05,08,28,82.10
2022,04,05,08,29,80.50
2022,04,05,08,30,80.50
2022,04,05,08,31,77.30
2022,04,05,08,32,80.50
2022,04,05,08,33,78.80
2022,04,05,08,34,80.50
2022,04,05,08,35,75.60
2022,04,05,08,36,80.50
2022,04,05,08,37,82.10
2022,04,05,08,38,77.30
2022,04,05,08,39,77.30
2022,04,05,08,40,77.30
2022,04,05,08,41,70.80
2022,04,05,08,42,75.60
2022,04,05,08,43,75.60
2022,04,05,08,44,82.10
2022,04,05,08,45,83.70
2022,04,05,08,46,78.80
2022,04,05,08,47,80.50
2022,04,05,08,48,77.30
2022,04,05,08,49,78.80
2022,04,05,08,50,72.40
2022,04,05,08,51,78.80
2022,04,05,08,52,75.60
2022,04,05,08,53,74.00
2022,04,05,08,54,72.40
2022,04,05,08,55,70.80
2022,04,05,08,56,78.80
2022,04,05,08,57,78.80
2022,04,05,08,58,82.10
2022,04,05,08,59,80.50
2022,04,05,09,00,77.30
2022,04,05,09,01,90.10
2022,04,05,09,02,96.60
2022,04,05,09,03,96.60
2022,04,05,09,04,90.10
2022,04,05,09,05,86.90
2022,04,05,09,06,78.80
2022,04,05,09,07,83.70
2022,04,05,09,08,85.30
2022,04,05,09,09,77.30
2022,04,05,09,10,77.30
2022,04,05,09,11,75.60
2022,04,05,09,12,75.60
2022,04,05,09,13,77.30
2022,04,05,09,14,72.40
2022,04,05,09,15,72.40
2022,04,05,09,16,72.40
2022,04,05,09,17,74.00
2022,04,05,09,18,67.60
2022,04,05,09,19,66.00
2022,04,05,09,20,69.20
2022,04,05,09,21,66.00
2022,04,05,09,22,64.40
2022,04,05,09,23,64.40
2022,04,05,09,24,72.40
2022,04,05,09,25,59.50
2022,04,05,09,26,74.00
2022,04,05,09,27,75.60
2022,04,05,09,28,78.80
2022,04,05,09,29,74.00
2022,04,05,09,30,64.40
2022,04,05,09,31,69.20
2022,04,05,09,32,67.60
2022,04,05,09,33,64.40
2022,04,05,09,34,64.40
2022,04,05,09,35,72.40
2022,04,05,09,36,69.20
2022,04,05,09,37,69.20
2022,04,05,09,38,70.80
2022,04,05,09,39,62.70
2022,04,05,09,40,69.20
2022,04,05,09,41,72.40
2022,04,05,09,42,67.60
2022,04,05,09,43,70.80
2022,04,05,09,44,74.00
2022,04,05,09,45,70.80
2022,04,05,09,46,70.80
2022,04,05,09,47,67.60
2022,04,05,09,48,72.40
2022,04,05,09,49,75.60
2022,04,05,09,50,66.00
2022,04,05,09,51,66.00
2022,04,05,09,52,66.00
2022,04,05,09,53,66.00
2022,04,05,09,54,74.00
2022,04,05,09,55,75.60
2022,04,05,09,56,80.50
2022,04,05,09,57,75.60
2022,04,05,09,58,74.00
2022,04,05,09,59,74.00
2022,04,05,10,00,75.60
2022,04,05,10,01,74.00
2022,04,05,10,02,77.30
2022,04,05,10,03,70.80
2022,04,05,10,04,70.80
2022,04,05,10,05,69.20
2022,04,05,10,06,64.40
2022,04,05,10,07,67.60
2022,04,05,10,08,70.80
2022,04,05,10,09,77.30
2022,04,05,10,10,69.20
2022,04,05,10,11,69.20
2022,04,05,10,12,72.40
2022,04,05,10,13,72.40
2022,04,05,10,14,70.80
2022,04,05,10,15,75.60
2022,04,05,10,16,67.60
2022,04,05,10,17,74.00
2022,04,05,10,18,70.80
2022,04,05,10,19,75.60
2022,04,05,10,20,74.00
2022,04,05,10,21,77.30
2022,04,05,10,22,66.00
2022,04,05,10,23,66.00
2022,04,05,10,24,66.00
2022,04,05,10,25,69.20
2022,04,05,10,26,67.60
2022,04,05,10,27,69.20
2022,04,05,10,28,69.20
2022,04,05,10,29,67.60
2022,04,05,10,30,67.60
2022,04,05,10,31,66.00
2022,04,05,10,32,62.70
2022,04,05,10,33,64.40
2022,04,05,10,34,67.60
2022,04,05,10,35,64.40
2022,04,05,10,36,64.40
2022,04,05,10,37,70.80
2022,04,05,10,38,66.00
2022,04,05,10,39,67.60
2022,04,05,10,40,66.00
2022,04,05,10,41,70.80
2022,04,05,10,42,72.40
2022,04,05,10,43,78.80
2022,04,05,10,44,66.00
2022,04,05,10,45,67.60
2022,04,05,10,46,67.60
2022,04,05,10,47,64.40
2022,04,05,10,48,66.00
2022,04,05,10,49,69.20
2022,04,05,10,50,74.00
2022,04,05,10,51,62.70
2022,04,05,10,52,61.20
2022,04,05,10,53,67.60
2022,04,05,10,54,64.40
2022,04,05,10,55,59.50
2022,04,05,10,56,61.20
2022,04,05,10,57,70.80
2022,04,05,10,58,69.20
2022,04,05,10,59,67.60
2022,04,05,11,00,67.60
2022,04,05,11,01,69.20
2022,04,05,11,02,66.00
2022,04,05,11,03,70.80
2022,04,05,11,04,67.60
2022,04,05,11,05,64.40
2022,04,05,11,06,69.20
2022,04,05,11,07,67.60
2022,04,05,11,08,67.60
2022,04,05,11,09,66.00
2022,04,05,11,10,62.70
2022,04,05,11,11,64.40
2022,04,05,11,12,61.20
2022,04,05,11,13,61.20
2022,04,05,11,14,59.50
2022,04,05,11,15,59.50
2022,04,05,11,16,56.30
2022,04,05,11,17,56.30
2022,04,05,11,18,57.90
2022,04,05,11,19,54.70
2022,04,05,11,20,57.90
2022,04,05,11,21,56.30
2022,04,05,11,22,56.30
2022,04,05,11,23,56.30
2022,04,05,11,24,57.90
2022,04,05,11,25,61.20
2022,04,05,11,26,64.40
2022,04,05,11,27,61.20
2022,04,05,11,28,61.20
2022,04,05,11,29,59.50
2022,04,05,11,30,66.00
2022,04,05,11,31,64.40
2022,04,05,11,32,64.40
2022,04,05,11,33,61.20
2022,04,05,11,34,67.60
2022,04,05,11,35,64.40
2022,04,05,11,36,66.00
2022,04,05,11,37,64.40
2022,04,05,11,38,59.50
2022,04,05,11,39,54.70
2022,04,05,11,40,57.90
2022,04,05,11,41,57.90
2022,04,05,11,42,62.70
2022,04,05,11,43,57.90
2022,04,05,11,44,56.30
2022,04,05,11,45,61.20
2022,04,05,11,46,56.30
2022,04,05,11,47,57.90
2022,04,05,11,48,61.20
2022,04,05,11,49,61.20
2022,04,05,11,50,59.50
2022,04,05,11,51,62.70
2022,04,05,11,52,62.70
2022,04,05,11,53,66.00
2022,04,05,11,54,61.20
2022,04,05,11,55,66.00
2022,04,05,11,56,67.60
2022,04,05,11,57,62.70
2022,04,05,11,58,57.90
2022,04,05,11,59,61.20
2022,04,05,12,00,56.30
2022,04,05,12,01,62.70
2022,04,05,12,02,64.40
2022,04,05,12,03,64.40
2022,04,05,12,04,61.20
2022,04,05,12,05,72.40
2022,04,05,12,06,67.60
2022,04,05,12,07,67.60
2022,04,05,12,08,67.60
2022,04,05,12,09,67.60
2022,04,05,12,10,59.50
2022,04,05,12,11,64.40
2022,04,05,12,12,64.40
2022,04,05,12,13,62.70
2022,04,05,12,14,66.00
2022,04,05,12,15,66.00
2022,04,05,12,16,67.60
2022,04,05,12,17,64.40
2022,04,05,12,18,64.40
2022,04,05,12,19,64.40
2022,04,05,12,20,62.70
2022,04,05,12,21,64.40
2022,04,05,12,22,67.60
2022,04,05,12,23,59.50
2022,04,05,12,24,61.20
2022,04,05,12,25,64.40
2022,04,05,12,26,66.00
2022,04,05,12,27,67.60
2022,04,05,12,28,74.00
2022,04,05,12,29,62.70
2022,04,05,12,30,62.70
2022,04,05,12,31,62.70
2022,04,05,12,32,66.00
2022,04,05,12,33,61.20
2022,04,05,12,34,61.20
2022,04,05,12,35,59.50
2022,04,05,12,36,62.70
2022,04,05,12,37,62.70
2022,04,05,12,38,64.40
2022,04,05,12,39,74.00
2022,04,05,12,40,74.00
2022,04,05,12,41,66.00
2022,04,05,12,42,74.00
2022,04,05,12,43,66.00
2022,04,05,12,44,61.20
2022,04,05,12,45,59.50
2022,04,05,12,46,61.20
2022,04,05,12,47,70.80
2022,04,05,12,48,64.40
2022,04,05,12,49,66.00
2022,04,05,12,50,66.00
2022,04,05,12,51,70.80
2022,04,05,12,52,67.60
2022,04,05,12,53,70.80
2022,04,05,12,54,74.00
2022,04,05,12,55,72.40
2022,04,05,12,56,62.70
2022,04,05,12,57,59.50
2022,04,05,12,58,67.60
2022,04,05,12,59,69.20
2022,04,05,13,00,66.00
2022,04,05,13,01,67.60
2022,04,05,13,02,70.80
2022,04,05,13,03,66.00
2022,04,05,13,04,69.20
2022,04,05,13,05,70.80
2022,04,05,13,06,70.80
2022,04,05,13,07,75.60
2022,04,05,13,08,72.40
2022,04,05,13,09,72.40
2022,04,05,13,10,74.00
2022,04,05,13,11,72.40
2022,04,05,13,12,72.40
2022,04,05,13,13,70.80
2022,04,05,13,14,72.40
2022,04,05,13,15,72.40
2022,04,05,13,16,72.40
2022,04,05,13,17,67.60
2022,04,05,13,18,66.00
2022,04,05,13,19,64.40
2022,04,05,13,20,70.80
2022,04,05,13,21,67.60
2022,04,05,13,22,67.60
2022,04,05,13,23,70.80
2022,04,05,13,24,66.00
2022,04,05,13,25,69.20
2022,04,05,13,26,66.00
2022,04,05,13,27,61.20
2022,04,05,13,28,64.40
2022,04,05,13,29,67.60
2022,04,05,13,30,66.00
2022,04,05,13,31,69.20
2022,04,05,13,32,69.20
2022,04,05,13,33,72.40
2022,04,05,13,34,70.80
2022,04,05,13,35,70.80
2022,04,05,13,36,70.80
2022,04,05,13,37,70.80
2022,04,05,13,38,67.60
2022,04,05,13,39,61.20
2022,04,05,13,40,66.00
2022,04,05,13,41,62.70
2022,04,05,13,42,61.20
2022,04,05,13,43,59.50
2022,04,05,13,44,61.20
2022,04,05,13,45,67.60
2022,04,05,13,46,64.40
2022,04,05,13,47,69.20
2022,04,05,13,48,67.60
2022,04,05,13,49,66.00
2022,04,05,13,50,62.70
2022,04,05,13,51,62.70
2022,04,05,13,52,61.20
2022,04,05,13,53,64.40
2022,04,05,13,54,59.50
2022,04,05,13,55,59.50
2022,04,05,13,56,62.70
2022,04,05,13,57,64.40
2022,04,05,13,58,62.70
2022,04,05,13,59,61.20
2022,04,05,14,00,61.20
2022,04,05,14,01,62.70
2022,04,05,14,02,61.20
2022,04,05,14,03,62.70
2022,04,05,14,04,62.70
2022,04,05,14,05,61.20
2022,04,05,14,06,61.20
2022,04,05,14,07,61.20
2022,04,05,14,08,62.70
2022,04,05,14,09,61.20
2022,04,05,14,10,61.20
2022,04,05,14,11,61.20
2022,04,05,14,12,56.30
2022,04,05,14,13,62.70
2022,04,05,14,14,59.50
2022,04,05,14,15,57.90
2022,04,05,14,16,59.50
2022,04,05,14,17,57.90
2022,04,05,14,18,57.90
2022,04,05,14,19,59.50
2022,04,05,14,20,61.20
2022,04,05,14,21,62.70
2022,04,05,14,22,64.40
2022,04,05,14,23,66.00
2022,04,05,14,24,64.40
2022,04,05,14,25,66.00
2022,04,05,14,26,64.40
2022,04,05,14,27,64.40
2022,04,05,14,28,64.40
2022,04,05,14,29,64.40
2022,04,05,14,30,64.40
2022,04,05,14,31,66.00
2022,04,05,14,32,64.40
2022,04,05,14,33,59.50
2022,04,05,14,34,57.90
2022,04,05,14,35,62.70
2022,04,05,14,36,59.50
2022,04,05,14,37,61.20
2022,04,05,14,38,61.20
2022,04,05,14,39,59.50
2022,04,05,14,40,66.00
2022,04,05,14,41,66.00
2022,04,05,14,42,62.70
2022,04,05,14,43,54.70
2022,04,05,14,44,64.40
2022,04,05,14,45,70.80
2022,04,05,14,46,72.40
2022,04,05,14,47,70.80
2022,04,05,14,48,72.40
2022,04,05,14,49,74.00
2022,04,05,14,50,70.80
2022,04,05,14,51,70.80
2022,04,05,14,52,72.40
2022,04,05,14,53,75.60
2022,04,05,14,54,67.60
2022,04,05,14,55,66.00
2022,04,05,14,56,67.60
2022,04,05,14,57,62.70
2022,04,05,14,58,66.00
2022,04,05,14,59,66.00
2022,04,05,15,00,61.20
2022,04,05,15,01,59.50
2022,04,05,15,02,53.10
2022,04,05,15,03,53.10
2022,04,05,15,04,51.50
2022,04,05,15,05,53.10
2022,04,05,15,06,53.10
2022,04,05,15,07,49.90
2022,04,05,15,08,53.10
2022,04,05,15,09,54.70
2022,04,05,15,10,54.70
2022,04,05,15,11,53.10
2022,04,05,15,12,51.50
2022,04,05,15,13,41.80
2022,04,05,15,14,40.20
2022,04,05,15,15,40.20
2022,04,05,15,16,40.20
2022,04,05,15,17,43.50
2022,04,05,15,18,41.80
2022,04,05,15,19,49.90
2022,04,05,15,20,51.50
2022,04,05,15,21,56.30
2022,04,05,15,22,59.50
2022,04,05,15,23,57.90
2022,04,05,15,24,59.50
2022,04,05,15,25,62.70
2022,04,05,15,26,61.20
2022,04,05,15,27,56.30
2022,04,05,15,28,56.30
2022,04,05,15,29,56.30
2022,04,05,15,30,56.30
2022,04,05,15,31,56.30
2022,04,05,15,32,59.50
2022,04,05,15,33,61.20
2022,04,05,15,34,59.50
2022,04,05,15,35,62.70
2022,04,05,15,36,62.70
2022,04,05,15,37,62.70
2022,04,05,15,38,64.40
2022,04,05,15,39,66.00
2022,04,05,15,40,64.40
2022,04,05,15,41,59.50
2022,04,05,15,42,67.60
2022,04,05,15,43,61.20
2022,04,05,15,44,59.50
2022,04,05,15,45,61.20
2022,04,05,15,46,64.40
2022,04,05,15,47,66.00
2022,04,05,15,48,67.60
2022,04,05,15,49,69.20
2022,04,05,15,50,64.40
2022,04,05,15,51,61.20
2022,04,05,15,52,64.40
2022,04,05,15,53,62.70
2022,04,05,15,54,59.50
2022,04,05,15,55,61.20
2022,04,05,15,56,64.40
2022,04,05,15,57,67.60
2022,04,05,15,58,67.60
2022,04,05,15,59,67.60
2022,04,05,16,00,66.00
2022,04,05,16,01,64.40
2022,04,05,16,02,61.20
2022,04,05,16,03,59.50
2022,04,05,16,04,61.20
2022,04,05,16,05,61.20
2022,04,05,16,06,61.20
2022,04,05,16,07,61.20
2022,04,05,16,08,61.20
2022,04,05,16,09,59.50
2022,04,05,16,10,61.20
2022,04,05,16,11,61.20
2022,04,05,16,12,64.40
2022,04,05,16,13,59.50
2022,04,05,16,14,62.70
2022,04,05,16,15,61.20
2022,04,05,16,16,59.50
2022,04,05,16,17,59.50
2022,04,05,16,18,56.30
2022,04,05,16,19,57.90
2022,04,05,16,20,59.50
2022,04,05,16,21,61.20
2022,04,05,16,22,64.40
2022,04,05,16,23,61.20
2022,04,05,16,24,61.20
2022,04,05,16,25,61.20
2022,04,05,16,26,59.50
2022,04,05,16,27,54.70
2022,04,05,16,28,56.30
2022,04,05,16,29,59.50
2022,04,05,16,30,62.70
2022,04,05,16,31,61.20
2022,04,05,16,32,59.50
2022,04,05,16,33,59.50
2022,04,05,16,34,53.10
2022,04,05,16,35,53.10
2022,04,05,16,36,51.50
2022,04,05,16,37,59.50
2022,04,05,16,38,59.50
2022,04,05,16,39,59.50
2022,04,05,16,40,57.90
2022,04,05,16,41,57.90
2022,04,05,16,42,57.90
2022,04,05,16,43,59.50
2022,04,05,16,44,54.70
2022,04,05,16,45,53.10
2022,04,05,16,46,54.70
2022,04,05,16,47,57.90
2022,04,05,16,48,54.70
2022,04,05,16,49,54.70
2022,04,05,16,50,54.70
2022,04,05,16,51,54.70
2022,04,05,16,52,54.70
2022,04,05,16,53,54.70
2022,04,05,16,54,57.90
2022,04,05,16,55,59.50
2022,04,05,16,56,59.50
2022,04,05,16,57,62.70
2022,04,05,16,58,57.90
2022,04,05,16,59,57.90
2022,04,05,17,00,56.30
2022,04,05,17,01,57.90
2022,04,05,17,02,54.70
2022,04,05,17,03,53.10
2022,04,05,17,04,51.50
2022,04,05,17,05,53.10
2022,04,05,17,06,57.90
2022,04,05,17,07,56.30
2022,04,05,17,08,57.90
2022,04,05,17,09,57.90
2022,04,05,17,10,61.20
2022,04,05,17,11,59.50
2022,04,05,17,12,62.70
2022,04,05,17,13,61.20
2022,04,05,17,14,59.50
2022,04,05,17,15,61.20
2022,04,05,17,16,57.90
2022,04,05,17,17,56.30
2022,04,05,17,18,62.70